SL-14 DEB, 45323

Orbit data source: Space-Track

SL-14 DEB, 45323 is space debris in LEO originally from a launch on Thu, 15 Aug 1991 UTC launched from the Plesetsk Missile And Space Complex (PKMTR). Debris objects in space refer to the collection of defunct objects orbiting the Earth. Examples of debris include non-operational satellites, rocket bodies, and fragments generated from explosions, collisions, or faulty payload assembly.

Loading next visibility...
Identifier
45323, 1991-056BM
Orbit
LEO
Country
Flag of CISCIS
Related business
Manufacturer
Unknown
Mission
Spacecraft
Bus & Motor
Unknown
Mass
Unknown
Launch date (UTC)
1991-08-15 (34 years ago)
Launch vehicle
Unknown
Launch site
Plesetsk Missile And Space Complex (PKMTR)
Object type
Payload
Rocket body
Debris
Shape & HBR
Unknown shape, 0.1 m
Radar Cross Section
Small (<0.1 m²)

Expand to show TLE details & history
Last TLE update: 15 hours ago

TLE from 15 hours ago
0 SL-14 DEB
1 45323U 91056BM  26036.53758367  .00000721  00000-0  17418-2 0  9992
2 45323  82.5279 221.0264 0003123 339.0213  21.0783 13.20807731286019
Epoch: 2026-02-05T12:54Z
TLE epoch observation values (Epoch: 2026-02-05T12:54:07.229Z)
Latitude
0.00002°
Longitude
-108.1921°
Altitude
1,182.245 km
Speed
7.264 km/s
True Right ascension
14h 44m 06s
True Declination
0° 00' 00"
Sunlit
Object was in daylight at epoch
Visualization orbit readout
Latitude
Unknown
Longitude
Unknown
Altitude
Unknown
Speed
Unknown
Apparent Right ascension
Unknown
Apparent Declination
Unknown
Sunlit
N/A
Visualization observer readout
Local Sidereal Time
05:36:34
Azimuth
Unknown
Elevation
Unknown
Doppler factor
Unknown
Orbital elements
Apogee altitude
1,181.237 km
Perigee altitude
1,176.517 km
Semi-major axis
7,557.014 km
Eccentricity
0.00031
Inclination
82.5279°
RAAN
221.0264°
Arg. of periapsis
339.0213°
True anomaly
21.09118°
Mean anomaly
21.0783°
Eccentric anomaly
21.08474°
Mean motion
3.30383 °/min
Orbital period
108.96 mins
BSTAR
0.0017418
Loading maneuver chart data...
Computing Atmospheric mass density...
Loading historical data...
Loading historical data...
Loading historical data...
Loading historical data...
Loading historical data...
Loading historical data...
Loading historical data...

Documentation

Showing up to 5 results
|